Time,TemperatureF,DewpointF,PressureIn,WindDirection,WindDirectionDegrees,WindSpeedMPH,WindSpeedGustMPH,Humidity,HourlyPrecipIn,Conditions,Clouds,dailyrainin,SolarRadiationWatts/m^2,SoftwareType,DateUTC
2013-01-22 00:02:00,56.0,19.0,-100.00,North,5,14.0,24.0,23,0.00,,,0.00,0.000000,,2013-01-22 10:02:00,
2013-01-22 00:12:00,56.0,19.0,-100.00,North,5,14.0,24.0,23,0.00,,,0.00,0.000000,,2013-01-22 10:12:00,
2013-01-22 00:22:00,56.0,19.0,-100.00,North,5,14.0,24.0,23,0.00,,,0.00,0.000000,,2013-01-22 10:22:00,
2013-01-22 00:32:00,56.0,19.0,-100.00,North,5,14.0,24.0,23,0.00,,,0.00,0.000000,,2013-01-22 10:32:00,
2013-01-22 00:52:00,56.0,21.0,-100.00,NNW,344,13.0,28.0,25,0.00,,,0.00,0.000000,,2013-01-22 10:52:00,
2013-01-22 01:02:00,56.0,21.0,-100.00,NNW,344,13.0,28.0,25,0.00,,,0.00,0.000000,,2013-01-22 11:02:00,
2013-01-22 01:12:00,56.0,21.0,-100.00,NNW,344,13.0,28.0,25,0.00,,,0.00,0.000000,,2013-01-22 11:12:00,
2013-01-22 01:22:00,56.0,21.0,-100.00,NNW,344,13.0,28.0,25,0.00,,,0.00,0.000000,,2013-01-22 11:22:00,
2013-01-22 01:32:00,56.0,21.0,-100.00,NNW,344,13.0,28.0,25,0.00,,,0.00,0.000000,,2013-01-22 11:32:00,
2013-01-22 01:53:00,55.0,23.0,-100.00,NNW,348,11.0,25.0,28,0.00,,,-99.99,0.000000,,2013-01-22 11:53:00,
2013-01-22 02:03:00,55.0,23.0,-100.00,NNW,348,11.0,25.0,28,0.00,,,-99.99,0.000000,,2013-01-22 12:03:00,
2013-01-22 02:12:00,55.0,23.0,-100.00,NNW,348,11.0,25.0,28,0.00,,,-99.99,0.000000,,2013-01-22 12:12:00,
2013-01-22 02:22:00,55.0,23.0,-100.00,NNW,348,11.0,25.0,28,0.00,,,-99.99,0.000000,,2013-01-22 12:22:00,
2013-01-22 02:32:00,55.0,23.0,-100.00,NNW,348,11.0,25.0,28,0.00,,,-99.99,0.000000,,2013-01-22 12:32:00,
2013-01-22 02:53:00,56.0,23.0,-100.00,NNW,344,11.0,23.0,27,0.00,,,0.00,0.000000,,2013-01-22 12:53:00,
2013-01-22 03:03:00,56.0,23.0,-100.00,NNW,344,11.0,23.0,27,0.00,,,0.00,0.000000,,2013-01-22 13:03:00,
2013-01-22 03:13:00,56.0,23.0,-100.00,NNW,344,11.0,23.0,27,0.00,,,0.00,0.000000,,2013-01-22 13:13:00,
2013-01-22 03:23:00,56.0,23.0,-100.00,NNW,344,11.0,23.0,27,0.00,,,0.00,0.000000,,2013-01-22 13:23:00,
2013-01-22 03:32:00,56.0,23.0,-100.00,NNW,344,11.0,23.0,27,0.00,,,0.00,0.000000,,2013-01-22 13:32:00,
2013-01-22 03:53:00,55.0,23.0,-100.00,North,11,12.0,22.0,28,0.00,,,0.00,0.000000,,2013-01-22 13:53:00,
2013-01-22 04:03:00,55.0,23.0,-100.00,North,11,12.0,22.0,28,0.00,,,0.00,0.000000,,2013-01-22 14:03:00,
2013-01-22 04:12:00,55.0,23.0,-100.00,North,11,12.0,22.0,28,0.00,,,0.00,0.000000,,2013-01-22 14:12:00,
2013-01-22 04:22:00,55.0,23.0,-100.00,North,11,12.0,22.0,28,0.00,,,0.00,0.000000,,2013-01-22 14:22:00,
2013-01-22 04:33:00,55.0,23.0,-100.00,North,11,12.0,22.0,28,0.00,,,0.00,0.000000,,2013-01-22 14:33:00,
2013-01-22 04:54:00,56.0,23.0,-100.00,NNW,333,13.0,23.0,27,0.00,,,0.00,0.000000,,2013-01-22 14:54:00,
2013-01-22 05:03:00,56.0,23.0,-100.00,NNW,333,13.0,23.0,27,0.00,,,0.00,0.000000,,2013-01-22 15:03:00,
2013-01-22 05:12:00,56.0,23.0,-100.00,NNW,333,13.0,23.0,27,0.00,,,0.00,0.000000,,2013-01-22 15:12:00,
2013-01-22 05:23:00,56.0,23.0,-100.00,NNW,333,13.0,23.0,27,0.00,,,0.00,0.000000,,2013-01-22 15:23:00,
2013-01-22 05:33:00,56.0,23.0,-100.00,NNW,333,13.0,23.0,27,0.00,,,0.00,0.000000,,2013-01-22 15:33:00,
2013-01-22 05:53:00,55.0,23.0,-100.00,NNW,340,14.0,26.0,28,0.00,,,0.00,0.000000,,2013-01-22 15:53:00,
2013-01-22 06:03:00,55.0,23.0,-100.00,NNW,340,14.0,26.0,28,0.00,,,0.00,0.000000,,2013-01-22 16:03:00,
2013-01-22 06:13:00,55.0,23.0,-100.00,NNW,340,14.0,26.0,28,0.00,,,0.00,0.000000,,2013-01-22 16:13:00,
2013-01-22 06:23:00,55.0,23.0,-100.00,NNW,340,14.0,26.0,28,0.00,,,0.00,0.000000,,2013-01-22 16:23:00,
2013-01-22 06:32:00,55.0,23.0,-100.00,NNW,340,14.0,26.0,28,0.00,,,0.00,0.000000,,2013-01-22 16:32:00,
2013-01-22 06:54:00,54.0,26.0,-100.00,NNW,343,11.0,25.0,33,0.00,,,0.00,0.000000,,2013-01-22 16:54:00,
2013-01-22 07:03:00,54.0,26.0,-100.00,NNW,343,11.0,25.0,33,0.00,,,0.00,0.000000,,2013-01-22 17:03:00,
2013-01-22 07:12:00,54.0,26.0,-100.00,NNW,343,11.0,25.0,33,0.00,,,0.00,0.000000,,2013-01-22 17:12:00,
2013-01-22 07:23:00,54.0,26.0,-100.00,NNW,343,11.0,25.0,33,0.00,,,0.00,0.000000,,2013-01-22 17:23:00,
2013-01-22 07:33:00,54.0,26.0,-100.00,NNW,343,11.0,25.0,33,0.00,,,0.00,0.000000,,2013-01-22 17:33:00,
2013-01-22 07:53:00,57.0,29.0,-100.00,NNW,347,14.0,24.0,34,0.00,,,0.00,29.000000,,2013-01-22 17:53:00,
2013-01-22 08:03:00,57.0,29.0,-100.00,NNW,347,14.0,24.0,34,0.00,,,0.00,29.000000,,2013-01-22 18:03:00,
2013-01-22 08:12:00,57.0,29.0,-100.00,NNW,347,14.0,24.0,34,0.00,,,0.00,29.000000,,2013-01-22 18:12:00,
2013-01-22 08:23:00,57.0,29.0,-100.00,NNW,347,14.0,24.0,34,0.00,,,0.00,29.000000,,2013-01-22 18:23:00,
2013-01-22 08:33:00,57.0,29.0,-100.00,NNW,347,14.0,24.0,34,0.00,,,0.00,29.000000,,2013-01-22 18:33:00,
2013-01-22 09:03:00,62.0,33.0,-100.00,NNW,343,15.0,34.0,34,0.00,,,0.00,252.000000,,2013-01-22 19:03:00,
2013-01-22 09:13:00,62.0,33.0,-100.00,NNW,343,15.0,34.0,34,0.00,,,0.00,252.000000,,2013-01-22 19:13:00,
2013-01-22 09:23:00,62.0,33.0,-100.00,NNW,343,15.0,34.0,34,0.00,,,0.00,252.000000,,2013-01-22 19:23:00,
2013-01-22 09:33:00,62.0,33.0,-100.00,NNW,343,15.0,34.0,34,0.00,,,0.00,252.000000,,2013-01-22 19:33:00,
2013-01-22 09:54:00,66.0,34.0,-100.00,North,356,15.0,27.0,31,0.00,,,-99.99,507.000000,,2013-01-22 19:54:00,
2013-01-22 10:03:00,66.0,34.0,-100.00,North,356,15.0,27.0,31,0.00,,,-99.99,507.000000,,2013-01-22 20:03:00,
2013-01-22 10:12:00,66.0,34.0,-100.00,North,356,15.0,27.0,31,0.00,,,-99.99,507.000000,,2013-01-22 20:12:00,
2013-01-22 10:23:00,66.0,34.0,-100.00,North,356,15.0,27.0,31,0.00,,,-99.99,507.000000,,2013-01-22 20:23:00,
2013-01-22 10:32:00,66.0,34.0,-100.00,North,356,15.0,27.0,31,0.00,,,-99.99,507.000000,,2013-01-22 20:32:00,
2013-01-22 10:53:00,70.0,36.0,-100.00,NNW,347,11.0,28.0,29,0.00,,,0.00,714.000000,,2013-01-22 20:53:00,
2013-01-22 11:03:00,70.0,36.0,-100.00,NNW,347,11.0,28.0,29,0.00,,,0.00,714.000000,,2013-01-22 21:03:00,
2013-01-22 11:13:00,70.0,36.0,-100.00,NNW,347,11.0,28.0,29,0.00,,,0.00,714.000000,,2013-01-22 21:13:00,
2013-01-22 11:22:00,70.0,36.0,-100.00,NNW,347,11.0,28.0,29,0.00,,,0.00,714.000000,,2013-01-22 21:22:00,
2013-01-22 11:33:00,70.0,36.0,-100.00,NNW,347,11.0,28.0,29,0.00,,,0.00,714.000000,,2013-01-22 21:33:00,
2013-01-22 11:53:00,78.0,32.0,-100.00,NNW,335,12.0,27.0,19,0.00,,,0.00,856.000000,,2013-01-22 21:53:00,
2013-01-22 12:03:00,78.0,32.0,-100.00,NNW,335,12.0,27.0,19,0.00,,,0.00,856.000000,,2013-01-22 22:03:00,
2013-01-22 12:12:00,78.0,32.0,-100.00,NNW,335,12.0,27.0,19,0.00,,,0.00,856.000000,,2013-01-22 22:12:00,
2013-01-22 12:22:00,78.0,32.0,-100.00,NNW,335,12.0,27.0,19,0.00,,,0.00,856.000000,,2013-01-22 22:22:00,
2013-01-22 12:32:00,78.0,32.0,-100.00,NNW,335,12.0,27.0,19,0.00,,,0.00,856.000000,,2013-01-22 22:32:00,
2013-01-22 12:53:00,78.0,31.0,-100.00,North,3,12.0,24.0,18,0.00,,,0.00,931.000000,,2013-01-22 22:53:00,
2013-01-22 13:02:00,78.0,31.0,-100.00,North,3,12.0,24.0,18,0.00,,,0.00,931.000000,,2013-01-22 23:02:00,
2013-01-22 13:12:00,78.0,31.0,-100.00,North,3,12.0,24.0,18,0.00,,,0.00,931.000000,,2013-01-22 23:12:00,
2013-01-22 13:23:00,78.0,31.0,-100.00,North,3,12.0,24.0,18,0.00,,,0.00,931.000000,,2013-01-22 23:23:00,
2013-01-22 13:32:00,78.0,31.0,-100.00,North,3,12.0,24.0,18,0.00,,,0.00,931.000000,,2013-01-22 23:32:00,
2013-01-22 13:53:00,78.0,31.0,-100.00,NNE,21,11.0,26.0,18,0.00,,,-99.99,930.000000,,2013-01-22 23:53:00,
2013-01-22 14:03:00,78.0,31.0,-100.00,NNE,21,11.0,26.0,18,0.00,,,-99.99,930.000000,,2013-01-23 00:03:00,
2013-01-22 14:12:00,78.0,31.0,-100.00,NNE,21,11.0,26.0,18,0.00,,,-99.99,930.000000,,2013-01-23 00:12:00,
2013-01-22 14:22:00,78.0,31.0,-100.00,NNE,21,11.0,26.0,18,0.00,,,-99.99,930.000000,,2013-01-23 00:22:00,
2013-01-22 14:33:00,78.0,31.0,-100.00,NNE,21,11.0,26.0,18,0.00,,,-99.99,930.000000,,2013-01-23 00:33:00,
2013-01-22 14:52:00,77.0,33.0,-100.00,North,6,10.0,23.0,20,0.00,,,-99.99,852.000000,,2013-01-23 00:52:00,
2013-01-22 15:03:00,77.0,33.0,-100.00,North,6,10.0,23.0,20,0.00,,,-99.99,852.000000,,2013-01-23 01:03:00,
2013-01-22 15:13:00,77.0,33.0,-100.00,North,6,10.0,23.0,20,0.00,,,-99.99,852.000000,,2013-01-23 01:13:00,
2013-01-22 15:22:00,77.0,33.0,-100.00,North,6,10.0,23.0,20,0.00,,,-99.99,852.000000,,2013-01-23 01:22:00,
2013-01-22 15:32:00,77.0,33.0,-100.00,North,6,10.0,23.0,20,0.00,,,-99.99,852.000000,,2013-01-23 01:32:00,
2013-01-22 15:53:00,75.0,34.0,-100.00,WNW,294,10.0,22.0,22,0.00,,,0.00,709.000000,,2013-01-23 01:53:00,
2013-01-22 16:03:00,75.0,34.0,-100.00,WNW,294,10.0,22.0,22,0.00,,,0.00,709.000000,,2013-01-23 02:03:00,
2013-01-22 16:12:00,75.0,34.0,-100.00,WNW,294,10.0,22.0,22,0.00,,,0.00,709.000000,,2013-01-23 02:12:00,
2013-01-22 16:22:00,75.0,34.0,-100.00,WNW,294,10.0,22.0,22,0.00,,,0.00,709.000000,,2013-01-23 02:22:00,
2013-01-22 16:32:00,75.0,34.0,-100.00,WNW,294,10.0,22.0,22,0.00,,,0.00,709.000000,,2013-01-23 02:32:00,
2013-01-22 16:53:00,71.0,38.0,-100.00,NNW,341,9.0,20.0,30,0.00,,,0.00,506.000000,,2013-01-23 02:53:00,
2013-01-22 17:03:00,71.0,38.0,-100.00,NNW,341,9.0,20.0,30,0.00,,,0.00,506.000000,,2013-01-23 03:03:00,
2013-01-22 17:12:00,71.0,38.0,-100.00,NNW,341,9.0,20.0,30,0.00,,,0.00,506.000000,,2013-01-23 03:12:00,
2013-01-22 17:22:00,71.0,38.0,-100.00,NNW,341,9.0,20.0,30,0.00,,,0.00,506.000000,,2013-01-23 03:22:00,
2013-01-22 17:32:00,71.0,38.0,-100.00,NNW,341,9.0,20.0,30,0.00,,,0.00,506.000000,,2013-01-23 03:32:00,
2013-01-22 17:53:00,69.0,33.0,-100.00,NNW,327,7.0,20.0,26,0.00,,,-99.99,258.000000,,2013-01-23 03:53:00,
2013-01-22 18:03:00,69.0,33.0,-100.00,NNW,327,7.0,20.0,26,0.00,,,-99.99,258.000000,,2013-01-23 04:03:00,
2013-01-22 18:12:00,69.0,33.0,-100.00,NNW,327,7.0,20.0,26,0.00,,,-99.99,258.000000,,2013-01-23 04:12:00,
2013-01-22 18:22:00,69.0,33.0,-100.00,NNW,327,7.0,20.0,26,0.00,,,-99.99,258.000000,,2013-01-23 04:22:00,
2013-01-22 18:32:00,69.0,33.0,-100.00,NNW,327,7.0,20.0,26,0.00,,,-99.99,258.000000,,2013-01-23 04:32:00,
2013-01-22 18:53:00,59.0,38.0,-100.00,North,353,8.0,19.0,46,0.00,,,0.00,26.000000,,2013-01-23 04:53:00,
2013-01-22 19:03:00,59.0,38.0,-100.00,North,353,8.0,19.0,46,0.00,,,0.00,26.000000,,2013-01-23 05:03:00,
2013-01-22 19:12:00,59.0,38.0,-100.00,North,353,8.0,19.0,46,0.00,,,0.00,26.000000,,2013-01-23 05:12:00,
2013-01-22 19:22:00,59.0,38.0,-100.00,North,353,8.0,19.0,46,0.00,,,0.00,26.000000,,2013-01-23 05:22:00,
2013-01-22 20:02:00,57.0,34.0,-100.00,North,353,6.0,17.0,42,0.00,,,0.00,0.000000,,2013-01-23 06:02:00,
2013-01-22 20:12:00,57.0,34.0,-100.00,North,353,6.0,17.0,42,0.00,,,0.00,0.000000,,2013-01-23 06:12:00,
2013-01-22 20:22:00,57.0,34.0,-100.00,North,353,6.0,17.0,42,0.00,,,0.00,0.000000,,2013-01-23 06:22:00,
2013-01-22 20:32:00,57.0,34.0,-100.00,North,353,6.0,17.0,42,0.00,,,0.00,0.000000,,2013-01-23 06:32:00,
2013-01-22 20:53:00,57.0,25.0,-100.00,NW,317,8.0,14.0,29,0.00,,,-99.99,0.000000,,2013-01-23 06:53:00,
2013-01-22 21:02:00,57.0,25.0,-100.00,NW,317,8.0,14.0,29,0.00,,,-99.99,0.000000,,2013-01-23 07:02:00,
2013-01-22 21:12:00,57.0,25.0,-100.00,NW,317,8.0,14.0,29,0.00,,,-99.99,0.000000,,2013-01-23 07:12:00,
2013-01-22 21:22:00,57.0,25.0,-100.00,NW,317,8.0,14.0,29,0.00,,,-99.99,0.000000,,2013-01-23 07:22:00,
2013-01-22 21:32:00,57.0,25.0,-100.00,NW,317,8.0,14.0,29,0.00,,,-99.99,0.000000,,2013-01-23 07:32:00,
2013-01-22 21:53:00,54.0,45.0,-100.00,WNW,291,1.0,19.0,72,0.00,,,0.00,0.000000,,2013-01-23 07:53:00,
2013-01-22 22:02:00,54.0,45.0,-100.00,WNW,291,1.0,19.0,72,0.00,,,0.00,0.000000,,2013-01-23 08:02:00,
2013-01-22 22:12:00,54.0,45.0,-100.00,WNW,291,1.0,19.0,72,0.00,,,0.00,0.000000,,2013-01-23 08:12:00,
2013-01-22 22:22:00,54.0,45.0,-100.00,WNW,291,1.0,19.0,72,0.00,,,0.00,0.000000,,2013-01-23 08:22:00,
2013-01-22 22:32:00,54.0,45.0,-100.00,WNW,291,1.0,19.0,72,0.00,,,0.00,0.000000,,2013-01-23 08:32:00,
2013-01-22 22:53:00,58.0,24.0,-100.00,NNW,328,10.0,19.0,27,0.00,,,0.00,0.000000,,2013-01-23 08:53:00,
2013-01-22 23:02:00,58.0,24.0,-100.00,NNW,328,10.0,19.0,27,0.00,,,0.00,0.000000,,2013-01-23 09:02:00,
2013-01-22 23:12:00,58.0,24.0,-100.00,NNW,328,10.0,19.0,27,0.00,,,0.00,0.000000,,2013-01-23 09:12:00,
2013-01-22 23:22:00,58.0,24.0,-100.00,NNW,328,10.0,19.0,27,0.00,,,0.00,0.000000,,2013-01-23 09:22:00,
2013-01-22 23:32:00,58.0,24.0,-100.00,NNW,328,10.0,19.0,27,0.00,,,0.00,0.000000,,2013-01-23 09:32:00,
2013-01-22 23:53:00,57.0,22.0,-100.00,NNW,330,8.0,17.0,25,0.00,,,0.00,0.000000,,2013-01-23 09:53:00,